[[{"header":{"parameterUnit":"m.s-1","parameterCategory":1,"la1":30.2991,"la2":30.254,"lo1":-89.0895,"lo2":-89.0444,"dy":0.0017,"dx":0.0017,"nx":28,"ny":28,"refTime":"2023-04-17T15:00:00:Z","depth":0,"parameterNumber":2,"parameterNumberName":"U-component_of_WINDS"},"data":[0,0,0,0,0,0,0,0,0,0,0,0,0,0,0,0,0,0,0,0,0,0,0,0,0,0,0,0,0,0,0,0,0,0,0,0,0,0,0,0,0,0,0,0,0,0,0,0,0,0,0,0,0,0,0,0,0,0,0.3038,0.3039,0,0.3125,0.3126,0.3127,0.3168,0.3168,0.3168,0.3168,0.3258,0.3261,0.3263,0,0,0,0,0,0,0,0,0,0,0,0,0,0.2909,0.2911,0.3038,0.3039,0.304,0.3125,0.3126,0.3127,0.3168,0.3168,0.3168,0.3168,0.3257,0.326,0.3263,0,0,0,0,0,0,0,0,0,0,0,0,0,0.2977,0.2912,0.3038,0.307,0.3074,0.3125,0.3126,0.3128,0.3168,0.3168,0.3168,0.3168,0.3256,0.326,0.3264,0.3288,0,0,0.3275,0.3277,0,0,0,0,0,0,0,0,0.2974,0.2982,0.3065,0.3068,0.3073,0.3135,0.3114,0.3182,0.3168,0.3132,0.3168,0.3168,0.3218,0.3224,0.3241,0.3293,0.3296,0.3275,0.3278,0.3279,0.328,0,0,0,0,0,0,0,0.2969,0.2979,0.3072,0.3066,0.3071,0.3082,0.3091,0.3127,0.3174,0.3135,0.3139,0.3148,0.322,0.3237,0.3243,0.3298,0.3275,0.3278,0.3281,0.3282,0.3376,0.3376,0,0,0,0,0,0,0.2958,0.2974,0.307,0.3075,0.3022,0.3084,0.3095,0.3115,0.3174,0.3183,0.3148,0.315,0.3231,0.3239,0.3247,0.3281,0.3279,0.3283,0.3285,0.3376,0.3376,0.3377,0,0,0,0,0,0,0.2955,0.2966,0.3066,0.3026,0.3039,0.3086,0.3109,0.3117,0.3135,0.3184,0.3193,0.3157,0.3231,0.3242,0.3278,0.3285,0.3284,0.3288,0.3376,0.3376,0.3376,0.3348,0,0,0,0,0,0,0.2952,0.2965,0.2974,0.3025,0.3041,0.3095,0.311,0.3119,0.3141,0.3144,0.3195,0.3203,0.3232,0.3272,0.3282,0.329,0.3291,0.3375,0.3376,0.3376,0.3349,0.3348,0.3347,0,0,0,0,0,0.2947,0.2963,0.2974,0.2986,0.3053,0.3095,0.3104,0.3137,0.3141,0.3151,0.3183,0.3201,0.3282,0.3276,0.3287,0.3296,0.3375,0.3376,0.3376,0.3349,0.3348,0.3347,0,0,0,0,0,0,0.2911,0.297,0.2984,0.3016,0.3051,0.3102,0.3116,0.3134,0.3168,0.3169,0.3209,0.322,0.3253,0.3278,0.327,0.3324,0.333,0.3333,0.3306,0.3305,0.3304,0.3298,0.3294,0,0,0,0,0,0.2907,0.2935,0.2986,0.301,0.3026,0.3068,0.3087,0.311,0.3147,0.3161,0.3196,0.3232,0.3265,0.3287,0.332,0.3353,0.3365,0.3364,0.3363,0.3362,0.3364,0.3385,0.3386,0.3379,0.3379,0.3379,0,0,0.2899,0.2934,0.295,0.3003,0.3032,0.3062,0.308,0.311,0.3133,0.3166,0.3203,0.323,0.3272,0.3307,0.3324,0.3329,0.3369,0.3363,0.3362,0.3365,0.3386,0.3386,0.3387,0.3379,0.3379,0.3379,0,0,0.2899,0.2928,0.2952,0.2981,0.3025,0.3053,0.3059,0.3108,0.3127,0.3165,0.3191,0.3219,0.3276,0.3306,0.3328,0.3342,0.336,0.3352,0.3346,0.3366,0.3366,0.3367,0.3373,0.3374,0.3353,0.3353,0.3353,0,0.2883,0.2928,0.2963,0.2992,0.3015,0.3047,0.3073,0.3099,0.3152,0.3168,0.3172,0.3245,0.3276,0.3319,0.3323,0.3339,0.3348,0.3346,0.3363,0.3364,0.3365,0.3372,0.3374,0.3352,0.3352,0.3352,0.3352,0,0.2908,0.2939,0.2953,0.3003,0.3028,0.3055,0.3094,0.3116,0.3136,0.3164,0.3203,0.3242,0.3284,0.3296,0.3316,0.3343,0.3344,0.3355,0.3363,0.3364,0.3371,0.3373,0.335,0.3351,0.3351,0.3351,0,0,0.2887,0.2957,0.2962,0.2985,0.3037,0.3062,0.3091,0.3133,0.3151,0.3187,0.3213,0.3261,0.3272,0.3298,0.3322,0.3339,0.3349,0.3348,0.335,0.3348,0.3382,0.3374,0.3376,0.3361,0.3362,0.3363,0.3379,0,0.2895,0.2948,0.2981,0.3021,0.3051,0.3083,0.3109,0.3143,0.3171,0.3201,0.3231,0.3265,0.3276,0.3292,0.3311,0.3344,0.3356,0.3343,0.3387,0.3389,0.3376,0.3379,0.337,0.3383,0.3381,0.3382,0.3382,0,0.2911,0.2946,0.299,0.3039,0.3053,0.3076,0.3117,0.3145,0.3186,0.3205,0.3234,0.3259,0.3292,0.3297,0.3345,0.3335,0.3355,0.3374,0.3376,0.3381,0.3386,0.3386,0.3388,0.3391,0.3386,0.3386,0.3386,0,0.2893,0.2951,0.2985,0.3005,0.3063,0.3078,0.3104,0.3144,0.3168,0.3205,0.3221,0.3261,0.3283,0.3314,0.3349,0.3349,0.3393,0.3401,0.3411,0.341,0.3419,0.3418,0.3426,0.3431,0.3431,0.3431,0.3431,0,0.2899,0.2925,0.2978,0.2999,0.3029,0.3067,0.3096,0.3124,0.316,0.3188,0.3218,0.3244,0.3288,0.332,0.3347,0.3383,0.3393,0.341,0.3417,0.3407,0.3405,0.3422,0.3422,0.3431,0.3431,0.3431,0.3431,0,0.2884,0.292,0.296,0.3012,0.3026,0.3046,0.3092,0.3114,0.3143,0.3178,0.3188,0.3234,0.3273,0.3311,0.3363,0.3382,0.3418,0.3427,0.3404,0.3408,0.3416,0.3415,0.3435,0.344,0.3441,0.3441,0.3441,0,0.2885,0.2906,0.2961,0.2981,0.3006,0.3038,0.3063,0.3101,0.3126,0.3175,0.3191,0.3232,0.3267,0.3328,0.3367,0.3407,0.3418,0.3422,0.3424,0.3415,0.3419,0.3418,0.3421,0.3421,0.3421,0.3421,0.3421,0,0.2884,0.2902,0.2935,0.2976,0.3004,0.3038,0.3073,0.3088,0.3134,0.316,0.32,0.3227,0.3281,0.3321,0.3367,0.3394,0.3415,0.342,0.3424,0.3415,0.3401,0.341,0.3402,0.3419,0.3419,0.3419,0.3419,0.342,0.2878,0.2898,0.2941,0.2978,0.3008,0.304,0.3064,0.3097,0.3131,0.3177,0.3198,0.3239,0.3281,0.3344,0.3371,0.3404,0.341,0.3416,0.3418,0.3419,0.3417,0.3395,0.3412,0.3412,0.3413,0.3413,0.3413,0,0.288,0.2909,0.2942,0.299,0.302,0.3037,0.3077,0.3101,0.3136,0.3174,0.3208,0.3255,0.3295,0.3337,0.338,0.3399,0.341,0.3409,0.3408,0.3414,0.3409,0.3401,0.3399,0.3399,0.3399,0.3399,0.3399,0.3399,0.2884,0.2919,0.2942,0.2994,0.3023,0.3063,0.3085,0.3115,0.3145,0.3196,0.323,0.3257,0.3297,0.3343,0.3382,0.3393,0.3408,0.3404,0.3418,0.3413,0.3414,0.3415,0.3408,0.3407,0.3407,0.3421,0.3421,0.3421]},{"header":{"parameterUnit":"m.s-1","parameterCategory":1,"la1":30.2991,"la2":30.254,"lo1":-89.0895,"lo2":-89.0444,"dy":0.0017,"dx":0.0017,"nx":28,"ny":28,"refTime":"2023-04-17T15:00:00:Z","depth":0,"parameterNumber":3,"parameterNumberName":"V-component_of_WINDS"},"data":[0,0,0,0,0,0,0,0,0,0,0,0,0,0,0,0,0,0,0,0,0,0,0,0,0,0,0,0,0,0,0,0,0,0,0,0,0,0,0,0,0,0,0,0,0,0,0,0,0,0,0,0,0,0,0,0,0,0,-2.5749,-2.5749,0,-2.5751,-2.5751,-2.5751,-2.5755,-2.5755,-2.5755,-2.5755,-2.5753,-2.5752,-2.5752,0,0,0,0,0,0,0,0,0,0,0,0,0,-2.5749,-2.5749,-2.5749,-2.5749,-2.5749,-2.5751,-2.5751,-2.5751,-2.5755,-2.5755,-2.5755,-2.5755,-2.5753,-2.5752,-2.5752,0,0,0,0,0,0,0,0,0,0,0,0,0,-2.5749,-2.5749,-2.5749,-2.5752,-2.5752,-2.5751,-2.5751,-2.5751,-2.5755,-2.5755,-2.5755,-2.5755,-2.5753,-2.5752,-2.5752,-2.5748,0,0,-2.5752,-2.5751,0,0,0,0,0,0,0,0,-2.5749,-2.5749,-2.5751,-2.5752,-2.5752,-2.5753,-2.5749,-2.5749,-2.5755,-2.5753,-2.5755,-2.5755,-2.5752,-2.5752,-2.5752,-2.5748,-2.5748,-2.5751,-2.5751,-2.5751,-2.5751,0,0,0,0,0,0,0,-2.5749,-2.5749,-2.575,-2.5751,-2.5752,-2.5752,-2.5752,-2.5749,-2.5752,-2.5754,-2.5754,-2.5754,-2.5752,-2.5752,-2.5752,-2.5747,-2.5752,-2.5751,-2.5751,-2.5751,-2.5741,-2.5741,0,0,0,0,0,0,-2.5749,-2.5749,-2.575,-2.575,-2.5751,-2.5752,-2.5752,-2.5752,-2.5752,-2.5752,-2.5754,-2.5754,-2.5752,-2.5752,-2.5752,-2.5748,-2.5751,-2.5751,-2.5751,-2.5742,-2.5741,-2.5741,0,0,0,0,0,0,-2.5749,-2.5749,-2.575,-2.575,-2.575,-2.5752,-2.5752,-2.5752,-2.5752,-2.5752,-2.5752,-2.5753,-2.5752,-2.5752,-2.5749,-2.5748,-2.5751,-2.5751,-2.5742,-2.5742,-2.5741,-2.5739,0,0,0,0,0,0,-2.5749,-2.5749,-2.5748,-2.575,-2.575,-2.5748,-2.5752,-2.5752,-2.5752,-2.5752,-2.5752,-2.5752,-2.5753,-2.575,-2.5749,-2.5747,-2.5751,-2.5742,-2.5742,-2.5741,-2.5739,-2.5739,-2.5738,0,0,0,0,0,-2.5749,-2.5746,-2.5748,-2.5748,-2.5748,-2.5748,-2.5748,-2.575,-2.5752,-2.575,-2.5751,-2.5752,-2.5748,-2.5749,-2.5749,-2.5747,-2.5742,-2.5742,-2.5741,-2.5739,-2.5739,-2.5738,0,0,0,0,0,0,-2.5742,-2.5746,-2.5748,-2.5746,-2.5747,-2.5748,-2.5747,-2.5749,-2.5748,-2.5748,-2.575,-2.575,-2.5747,-2.5746,-2.5748,-2.5743,-2.5745,-2.5745,-2.5744,-2.5743,-2.5743,-2.5743,-2.575,0,0,0,0,0,-2.574,-2.5741,-2.5744,-2.5741,-2.5742,-2.5744,-2.5744,-2.5746,-2.5746,-2.5746,-2.5746,-2.5746,-2.5745,-2.5744,-2.5743,-2.5739,-2.5739,-2.5738,-2.5737,-2.5737,-2.5736,-2.5736,-2.5735,-2.574,-2.574,-2.574,0,0,-2.5736,-2.5739,-2.5738,-2.574,-2.5741,-2.5741,-2.5744,-2.5743,-2.5743,-2.5745,-2.5744,-2.5744,-2.5744,-2.5741,-2.574,-2.5741,-2.5735,-2.5737,-2.5736,-2.5736,-2.5736,-2.5735,-2.5735,-2.574,-2.574,-2.574,0,0,-2.573,-2.5731,-2.573,-2.5732,-2.5734,-2.5736,-2.5736,-2.5738,-2.5739,-2.5737,-2.5739,-2.5739,-2.5736,-2.5737,-2.5736,-2.5732,-2.5733,-2.5732,-2.5729,-2.5729,-2.5728,-2.5728,-2.5727,-2.5727,-2.5731,-2.5731,-2.5731,0,-2.5724,-2.5725,-2.5729,-2.5729,-2.573,-2.5734,-2.5733,-2.5733,-2.5734,-2.5735,-2.5736,-2.5735,-2.5734,-2.5733,-2.5732,-2.5731,-2.5731,-2.5731,-2.5728,-2.5728,-2.5727,-2.5727,-2.5726,-2.5731,-2.5731,-2.5731,-2.5731,0,-2.5719,-2.5719,-2.5718,-2.5721,-2.5722,-2.5721,-2.5725,-2.5725,-2.5727,-2.5729,-2.5727,-2.5728,-2.5728,-2.5727,-2.5728,-2.5726,-2.5727,-2.5728,-2.573,-2.5727,-2.5726,-2.5726,-2.5731,-2.5731,-2.5731,-2.5731,0,0,-2.5706,-2.5714,-2.5713,-2.5715,-2.5719,-2.5719,-2.5719,-2.572,-2.572,-2.5721,-2.5721,-2.572,-2.5722,-2.5722,-2.5723,-2.5723,-2.5721,-2.5724,-2.5724,-2.5724,-2.5719,-2.5719,-2.5718,-2.5722,-2.5722,-2.5722,-2.5719,0,-2.5701,-2.5702,-2.5706,-2.5706,-2.5707,-2.5712,-2.5712,-2.5714,-2.5716,-2.5716,-2.5718,-2.5718,-2.572,-2.572,-2.572,-2.5721,-2.572,-2.5721,-2.5721,-2.5721,-2.5722,-2.5718,-2.5717,-2.5715,-2.5719,-2.5719,-2.5719,0,-2.5694,-2.5697,-2.5697,-2.5703,-2.5703,-2.5703,-2.5706,-2.5706,-2.5709,-2.571,-2.5711,-2.5714,-2.5713,-2.5716,-2.5716,-2.5717,-2.5717,-2.5718,-2.5718,-2.5718,-2.572,-2.5718,-2.5714,-2.5714,-2.5719,-2.5719,-2.5719,0,-2.5686,-2.569,-2.5691,-2.5693,-2.5699,-2.5699,-2.5701,-2.5704,-2.5705,-2.5707,-2.5708,-2.5709,-2.571,-2.571,-2.5713,-2.5714,-2.5713,-2.5715,-2.5714,-2.5714,-2.5714,-2.5714,-2.571,-2.5713,-2.5713,-2.5713,-2.5713,0,-2.568,-2.568,-2.5688,-2.5689,-2.5689,-2.5694,-2.5694,-2.5697,-2.57,-2.5701,-2.5704,-2.5705,-2.5708,-2.5709,-2.5711,-2.5711,-2.5711,-2.5713,-2.5713,-2.5713,-2.5713,-2.5713,-2.5713,-2.5713,-2.5713,-2.5713,-2.5713,0,-2.5671,-2.5676,-2.5678,-2.5685,-2.5686,-2.5686,-2.5692,-2.5692,-2.5695,-2.5697,-2.5697,-2.5701,-2.5703,-2.5706,-2.5707,-2.5709,-2.5709,-2.5709,-2.5709,-2.5709,-2.5709,-2.5709,-2.5705,-2.5705,-2.5708,-2.5708,-2.5708,0,-2.5667,-2.5668,-2.5675,-2.5677,-2.5679,-2.5682,-2.5684,-2.5689,-2.569,-2.5694,-2.5695,-2.5697,-2.5699,-2.5701,-2.5704,-2.5706,-2.5707,-2.5705,-2.5707,-2.5707,-2.5708,-2.5708,-2.5708,-2.5705,-2.5705,-2.5705,-2.5705,0,-2.5659,-2.5662,-2.5666,-2.567,-2.5673,-2.5676,-2.568,-2.5681,-2.5687,-2.5688,-2.5691,-2.5693,-2.5696,-2.5698,-2.5701,-2.5702,-2.5704,-2.5704,-2.5705,-2.5704,-2.5704,-2.5705,-2.5708,-2.5704,-2.5704,-2.5704,-2.5704,-2.5704,-2.5653,-2.5654,-2.566,-2.5664,-2.5668,-2.5672,-2.5673,-2.5677,-2.568,-2.5684,-2.5687,-2.5689,-2.5693,-2.5697,-2.5699,-2.57,-2.5701,-2.5701,-2.5701,-2.5701,-2.5701,-2.5704,-2.5701,-2.5701,-2.5701,-2.5701,-2.5701,0,-2.5646,-2.5651,-2.5654,-2.566,-2.5664,-2.5667,-2.5672,-2.5674,-2.5677,-2.5681,-2.5683,-2.5687,-2.569,-2.5693,-2.5696,-2.5697,-2.5698,-2.5698,-2.5698,-2.5698,-2.57,-2.57,-2.5697,-2.5697,-2.5697,-2.5697,-2.5697,-2.5697,-2.5643,-2.5646,-2.565,-2.5655,-2.566,-2.5664,-2.5666,-2.567,-2.5673,-2.5677,-2.568,-2.5683,-2.5687,-2.5691,-2.5693,-2.5694,-2.5695,-2.5695,-2.5696,-2.5698,-2.5698,-2.5698,-2.5698,-2.5695,-2.5695,-2.5694,-2.5694,-2.5694]}]]